Location: Unspecified
(0.0000°N, 0.0000°E)
Time: 22:17:03
(UTC+00:00)

Cosmos 2499 - Visible Passes

Search period start: 08 December 2023 00:00
Search period end: 18 December 2023 00:00
Orbit: 1151 x 1508 km, 82.4° (Epoch: 08 December)

Date Brightness Start Highest point End Pass type
(mag) Time Alt. Az. Time Alt. Az. Time Alt. Az.
08 Dec ? 05:04:45 10° S 05:11:54 89° W 05:18:58 10° N visible
09 Dec ? 03:36:04 10° ESE 03:39:07 13° E 03:42:09 10° ENE visible
09 Dec ? 05:25:07 10° SSW 05:31:57 51° W 05:38:45 10° NNW visible
10 Dec ? 03:53:35 10° SSE 03:59:12 25° E 04:04:47 10° NE visible
11 Dec ? 04:12:34 10° SSE 04:19:17 46° E 04:25:57 10° NNE visible
11 Dec ? 18:17:27 10° WNW 18:22:05 15° W 18:26:46 10° SW visible
12 Dec ? 04:32:15 10° S 04:39:20 81° E 04:46:26 10° N visible
13 Dec ? 03:04:56 10° ESE 03:06:35 11° E 03:08:15 10° E visible
13 Dec ? 04:52:29 10° SSW 04:59:24 58° W 05:06:21 10° N visible
14 Dec ? 03:21:27 10° SE 03:26:40 22° E 03:31:53 10° NE visible
14 Dec ? 05:13:19 10° SSW 05:19:28 33° W 05:25:40 10° NNW visible
15 Dec ? 03:40:13 10° SSE 03:46:44 40° E 03:53:17 10° NNE visible
16 Dec ? 03:59:45 10° S 04:06:46 72° E 04:13:53 10° N visible
17 Dec ? 04:19:51 10° SSW 04:26:50 67° W 04:33:57 10° N visible
